Tracking 18665 objects as of 23-June-2017
HD Live streaming from Space Station
objects crossing your sky now

COSMOS 2251 DEB

Track COSMOS 2251 DEB now!
10-day predictions


NORAD ID: 34544
Int'l Code: 1993-036UE
Perigee: 780.8 km
Apogee: 1,368.8 km
Inclination: 73.9 °
Period: 106.6 minutes
Semi major axis: 7445 km
RCS: 0.0085 m2 (small)
Launch date: June 16, 1993
Source: Commonwealth of Independent States (former USSR) (CIS)
Launch site: PLESETSK MISSILE AND SPACE COMPLEX (PKMTR)

Note: This is SATELLITE DEBRIS
Your satellite tracking list
Your tracking list is empty





NASA's NSSDC Master Catalog

Two Line Element Set (TLE):
1 34544U 93036UE  17173.94310616 +.00000107 +00000-0 +12107-3 0  9992
2 34544 073.9171 153.1617 0394821 032.7439 358.7387 13.51245965410499
Source of the keplerian elements: AFSPC